Home > Weather > Lienz > Past weeks

Flag for Austria Past Weather in Lienz, Tyrol, Austria — Yesterday and Last 2 Weeks

Now
59 °F

Cool.


Feels Like: 59 °F
Forecast: 61 / 80 °F
Wind: 1 mph from Northwest

Location: Lienz

Current Time: Jul 26, 2016 at 4:48:58 AM

Latest Report: Jul 26, 2016 at 4:00 AM


Visibility: N/A

Pressure: 30.11 "Hg (27.79 "Hg at 677m altitude)

Humidity: 93%

Dew Point: 57 °F

Location of LienzLocation

Past Weather in Lienz — Graph

°F

Lienz Temperature Yesterday

Maximum temperature yesterday: 76 °F (at 4:00 PM)
Minimum temperature yesterday: 62 °F (at 7:00 AM)
Average temperature yesterday: 68 °F

High & Low Weather Summary for the Past Weeks

 TemperatureHumidityPressure
High89 °F (Jul 11, 4:00 PM)95% (Jul 12, 10:00 PM)30.23 "Hg (Jul 12, 10:00 PM)
Low47 °F (Jul 16, 6:00 AM)31% (Jul 15, 3:00 PM)29.75 "Hg (Jul 13, 4:00 PM)
Average66 °F67%30.02 "Hg
* Reported Jul 11 3:00 AM — Jul 26 3:00 AM, Lienz, Weather by CustomWeather, © 2016

Note: Actual official high and low records may vary slightly from our data, if they occured in-between our weather recording intervals... More about our weather records

Advertising

Lienz Weather History for the Previous 24 Hours

Scroll right to see more
 ConditionsComfort  
Time TempWeatherWind HumidityBarometerVisibility
3:00 AM
Tue, Jul 26
61 °FCool.1 mph92%30.10 "HgN/A
2:00 AM62 °FCool.1 mph93%30.11 "HgN/A
1:00 AM63 °FMild.1 mph92%30.10 "HgN/A
12:00 AM63 °FMild.1 mph91%30.09 "HgN/A
11:00 PM
Mon, Jul 25
65 °FMild.2 mph90%30.09 "HgN/A
10:00 PM66 °FMild.3 mph87%30.09 "HgN/A
9:00 PM68 °FMild.2 mph86%30.06 "HgN/A
8:00 PM70 °FMild.1 mph84%30.03 "HgN/A
7:00 PM71 °FMild.1 mph76%30.00 "HgN/A
6:00 PM71 °FMild.1 mph76%30.01 "HgN/A
5:00 PM72 °FMild.6 mph69%29.99 "HgN/A
4:00 PM76 °FMild.1 mph61%29.97 "HgN/A
3:00 PM75 °FMild.3 mph63%29.98 "HgN/A
2:00 PM74 °FLight rain. Overcast.1 mph65%29.99 "Hg19 mi
1:00 PM71 °FMild.3 mph71%30.02 "HgN/A
12:00 PM72 °FMild.6 mph67%30.01 "HgN/A
11:00 AM75 °FMild.3 mph63%29.99 "HgN/A
10:00 AM71 °FMild.2 mph72%30.02 "HgN/A
9:00 AM67 °FSprinkles. Cloudy.1 mph83%30.07 "HgN/A
8:00 AM62 °FCool.2 mph92%30.12 "HgN/A
7:00 AM62 °FLight rain. Overcast.2 mph93%30.13 "Hg3 mi
6:00 AM62 °FSprinkles. Cloudy.2 mph87%30.11 "HgN/A
5:00 AM62 °FFog.2 mph83%30.09 "HgN/A
4:00 AM63 °FMild.3 mph79%30.08 "HgN/A
Weather by CustomWeather, © 2016

See weather overviewHow to use our weather pages